FW7212 Weather Reports


time (UTC)temp
C
wind
direction
speed
KPH
gust
KPH
rain 1hr
cm
rain 24hr
cm
rain mn
cm
humidity
%
barometer
mb
20260508111533 6 252 1.6 12.9 0.00 0.00 0.00 73 1013.1
20260508111030 6 241 1.6 12.9 0.00 0.00 0.00 73 1012.9
20260508110541 6 268 0.0 9.7 0.00 0.00 0.00 74 1013.0
20260508110054 6 199 1.6 12.9 0.00 0.00 0.00 74 1012.9
20260508105542 6 208 3.2 14.5 0.00 0.00 0.00 73 1012.9
20260508105053 6 265 0.0 14.5 0.00 0.00 0.00 73 1012.8
20260508104507 6 182 0.0 9.7 0.00 0.00 0.00 73 1012.8
20260508104102 6 250 0.0 8.0 0.00 0.00 0.00 73 1012.7
20260508103508 6 252 0.0 9.7 0.00 0.00 0.00 72 1012.7
20260508103026 6 17 1.6 8.0 0.00 0.00 0.00 72 1012.7
20260508102536 6 216 1.6 11.3 0.00 0.00 0.00 72 1012.6
20260508102030 6 157 3.2 12.9 0.00 0.00 0.00 72 1012.5
20260508101544 6 295 1.6 16.1 0.00 0.00 0.00 72 1012.6
20260508101055 6 160 3.2 11.3 0.00 0.00 0.00 72 1012.5
20260508100538 6 281 1.6 8.0 0.00 0.00 0.00 72 1012.6
20260508100052 6 227 1.6 8.0 0.00 0.00 0.00 72 1012.6
20260508095511 6 245 1.6 9.7 0.00 0.00 0.00 71 1012.6
20260508095004 6 192 3.2 9.7 0.00 0.00 0.00 71 1012.6
20260508094506 6 252 0.0 11.3 0.00 0.00 0.00 71 1012.5
20260508094020 6 210 1.6 11.3 0.00 0.00 0.00 70 1012.5
20260508093531 6 227 1.6 8.0 0.00 0.00 0.00 70 1012.6
20260508093027 6 212 0.0 9.7 0.00 0.00 0.00 70 1012.5
20260508092537 7 217 1.6 8.0 0.00 0.00 0.00 70 1012.6
20260508092050 7 189 1.6 11.3 0.00 0.00 0.00 70 1012.6
20260508091550 7 204 3.2 11.3 0.00 0.00 0.00 69 1012.6
20260508091059 7 254 1.6 8.0 0.00 0.00 0.00 69 1012.7
20260508091003 7 262 1.6 8.0 0.00 0.00 0.00 69 1012.7
20260508090517 7 207 0.0 8.0 0.00 0.00 0.00 69 1012.7
20260508090032 7 124 0.0 4.8 0.00 0.00 0.00 70 1012.6
20260508085523 7 261 0.0 6.4 0.00 0.00 0.00 69 1012.6
20260508085032 7 260 1.6 9.7 0.00 0.00 0.00 68 1012.6
20260508084549 7 231 1.6 9.7 0.00 0.00 0.00 69 1012.6
20260508084040 7 221 0.0 9.7 0.00 0.00 0.00 69 1012.6
20260508083554 7 96 1.6 9.7 0.00 0.00 0.00 68 1012.6
20260508083010 7 189 0.0 8.0 0.00 0.00 0.00 69 1012.7
20260508082517 7 253 0.0 6.4 0.00 0.00 0.00 70 1012.7
20260508082009 7 257 0.0 6.4 0.00 0.00 0.00 70 1012.7
20260508081523 7 210 0.0 6.4 0.00 0.00 0.00 70 1012.7
20260508081030 7 273 0.0 8.0 0.00 0.00 0.00 69 1012.7
20260508080528 7 227 0.0 8.0 0.00 0.00 0.00 69 1012.6
20260508080044 7 193 0.0 8.0 0.00 0.00 0.00 71 1012.7
20260508075553 7 230 1.6 9.7 0.00 0.00 0.00 70 1012.8
20260508075048 7 197 0.0 8.0 0.00 0.00 0.00 71 1012.7
20260508074556 6 159 0.0 8.0 0.00 0.00 0.00 72 1012.8
20260508074006 6 177 0.0 6.4 0.00 0.00 0.00 72 1012.8
20260508073521 6 231 0.0 8.0 0.00 0.00 0.00 74 1012.9
20260508073010 6 247 0.0 8.0 0.00 0.00 0.00 73 1012.9
20260508072527 6 203 0.0 6.4 0.00 0.00 0.00 73 1012.9
20260508072034 6 298 1.6 6.4 0.00 0.00 0.00 73 1012.8
20260508071525 6 248 0.0 3.2 0.00 0.00 0.00 76 1012.9
20260508071034 6 248 0.0 6.4 0.00 0.00 0.00 76 1012.7
20260508070552 6 224 0.0 6.4 0.00 0.00 0.00 74 1012.7
20260508065555 7 248 0.0 8.0 0.00 0.00 0.00 71 1012.7
20260508065007 7 234 0.0 8.0 0.00 0.00 0.00 70 1012.6
20260508064546 7 213 0.0 9.7 0.00 0.00 0.00 68 1012.5
20260508064011 7 249 0.0 11.3 0.00 0.00 0.00 72 1012.5
20260508063527 7 203 0.0 11.3 0.00 0.00 0.00 70 1012.6
20260508063039 7 166 0.0 6.4 0.00 0.00 0.00 67 1012.6
20260508062533 7 132 0.0 6.4 0.00 0.00 0.00 68 1012.6
20260508062040 7 215 0.0 8.0 0.00 0.00 0.00 69 1012.8
20260508061601 7 192 1.6 8.0 0.00 0.00 0.00 71 1012.7
20260508061015 7 215 0.0 12.9 0.00 0.00 0.00 70 1012.7
20260508060555 7 129 0.0 12.9 0.00 0.00 0.00 69 1012.7
20260508060006 7 216 0.0 8.0 0.00 0.00 0.00 69 1012.7
20260508055520 7 214 1.6 8.0 0.00 0.00 0.00 69 1012.8
20260508055006 7 226 1.6 8.0 0.00 0.00 0.00 68 1012.8
20260508054534 7 282 1.6 8.0 0.00 0.00 0.00 70 1012.8
20260508054031 7 196 1.6 9.7 0.00 0.00 0.00 69 1013.0
20260508053535 7 197 0.0 9.7 0.00 0.00 0.00 72 1013.0
20260508053031 7 221 1.6 8.0 0.00 0.00 0.00 71 1013.0
20260508052545 7 206 0.0 8.0 0.00 0.00 0.00 75 1013.1
20260508052057 7 192 0.0 8.0 0.00 0.00 0.00 74 1013.1
20260508052002 7 234 0.0 8.0 0.00 0.00 0.00 70 1013.1
20260508051545 7 240 3.2 8.0 0.00 0.00 0.00 72 1013.1
20260508051052 7 151 0.0 8.0 0.00 0.00 0.00 70 1013.0
20260508050509 7 213 0.0 6.4 0.00 0.00 0.00 75 1013.3
20260508045508 7 161 0.0 9.7 0.00 0.00 0.00 71 1013.3
20260508045023 7 254 1.6 9.7 0.00 0.00 0.00 73 1013.2
20260508044532 7 220 0.0 6.4 0.00 0.00 0.00 71 1013.1
20260508044024 7 169 0.0 3.2 0.00 0.00 0.00 75 1013.1
20260508043534 7 202 0.0 3.2 0.00 0.00 0.00 77 1013.1
20260508043054 7 236 0.0 3.2 0.00 0.00 0.00 74 1013.1
20260508042533 7 210 0.0 6.4 0.00 0.00 0.00 72 1013.0
20260508042047 7 192 0.0 6.4 0.00 0.00 0.00 68 1012.9
20260508041556 7 198 1.6 4.8 0.00 0.00 0.00 75 1013.0
20260508041109 7 242 0.0 3.2 0.00 0.00 0.00 72 1013.0
20260508040600 7 184 0.0 3.2 0.00 0.00 0.00 75 1013.1
20260508040501 7 182 0.0 3.2 0.00 0.00 0.00 73 1013.0
20260508040015 7 215 0.0 3.2 0.00 0.00 0.00 71 1013.0
20260508035526 7 198 0.0 8.0 0.00 0.00 0.00 76 1013.0
20260508035010 7 238 0.0 8.0 0.00 0.00 0.00 73 1013.0
20260508034525 7 199 0.0 6.4 0.00 0.00 0.00 74 1012.9
20260508034034 7 210 0.0 6.4 0.00 0.00 0.00 73 1012.9
20260508033519 7 201 1.6 6.4 0.00 0.00 0.00 66 1012.7
20260508033035 7 219 1.6 6.4 0.00 0.00 0.00 70 1012.9
20260508032546 7 205 0.0 3.2 0.00 0.00 0.00 69 1013.0
20260508032059 7 217 0.0 3.2 0.00 0.00 0.00 72 1013.0
20260508031553 7 232 0.0 3.2 0.00 0.00 0.00 73 1013.0
20260508031005 8 233 0.0 3.2 0.00 0.00 0.00 72 1013.0
20260508030517 8 250 0.0 1.6 0.00 0.00 0.00 71 1013.0
20260508030006 8 252 0.0 0.0 0.00 0.00 0.00 71 1013.0
20260508025517 8 252 0.0 1.6 0.00 0.00 0.00 65 1013.0
20260508025033 8 252 0.0 3.2 0.00 0.00 0.00 63 1013.0
20260508024534 8 252 0.0 3.2 0.00 0.00 0.00 63 1013.0
20260508024034 8 250 0.0 1.6 0.00 0.00 0.00 62 1013.0
20260508023545 8 250 0.0 6.4 0.00 0.00 0.00 62 1013.1
20260508023059 8 202 0.0 6.4 0.00 0.00 0.00 61 1013.0
20260508023002 8 202 0.0 1.6 0.00 0.00 0.00 62 1013.0
20260508022547 8 234 0.0 1.6 0.00 0.00 0.00 63 1013.0
20260508022009 8 234 0.0 1.6 0.00 0.00 0.00 62 1013.0
20260508021519 8 234 0.0 1.6 0.00 0.00 0.00 64 1013.0
20260508021013 8 248 0.0 1.6 0.00 0.00 0.00 62 1012.9
20260508020521 9 248 0.0 3.2 0.00 0.00 0.00 60 1012.9
20260508020034 9 248 0.0 3.2 0.00 0.00 0.00 58 1012.9
20260508015548 9 260 0.0 1.6 0.00 0.00 0.00 58 1012.9
20260508015038 9 260 0.0 1.6 0.00 0.00 0.00 59 1012.8
20260508014552 9 260 0.0 1.6 0.00 0.00 0.00 59 1012.9
20260508014006 10 260 0.0 3.2 0.00 0.00 0.00 57 1012.8
20260508013555 10 265 0.0 3.2 0.00 0.00 0.00 56 1012.8
20260508013008 10 311 0.0 3.2 0.00 0.00 0.00 55 1012.7
20260508012523 10 311 0.0 1.6 0.00 0.00 0.00 54 1012.6
20260508012024 10 311 0.0 0.0 0.00 0.00 0.00 53 1012.4
20260508011535 10 311 0.0 0.0 0.00 0.00 0.00 53 1012.3
20260508011042 11 311 0.0 0.0 0.00 0.00 0.00 54 1012.3
20260508010553 11 311 0.0 0.0 0.00 0.00 0.00 54 1012.3
20260508010024 11 311 0.0 0.0 0.00 0.00 0.00 54 1012.2
20260508005528 11 311 0.0 1.6 0.00 0.00 0.00 51 1012.1
20260508005030 11 311 0.0 1.6 0.00 0.00 0.00 52 1012.2
20260508004542 11 311 0.0 1.6 0.00 0.00 0.00 52 1012.1
20260508004052 12 311 0.0 1.6 0.00 0.00 0.00 52 1012.0
20260508003507 12 311 0.0 6.4 0.00 0.00 0.00 51 1012.1
20260508003018 12 311 0.0 6.4 0.00 0.00 0.00 48 1012.1
20260508002533 12 282 1.6 6.4 0.00 0.00 0.00 50 1012.1
20260508002045 12 284 0.0 8.0 0.00 0.00 0.00 50 1012.0
20260508001556 12 309 0.0 8.0 0.00 0.00 0.00 49 1012.1
20260508001007 12 277 1.6 8.0 0.00 0.00 0.00 49 1012.0
20260508000528 12 284 3.2 8.0 0.00 0.00 0.00 48 1012.0
20260508000035 12 286 1.6 8.0 0.00 0.00 0.00 48 1011.9
20260507235553 13 287 1.6 8.0 0.00 0.00 0.00 47 1011.9
20260507235059 13 291 1.6 4.8 0.00 0.00 0.00 48 1011.7
20260507235002 13 298 0.0 3.2 0.00 0.00 0.00 48 1011.8
20260507234523 13 270 0.0 9.7 0.00 0.00 0.00 48 1011.8
20260507234025 13 270 4.8 12.9 0.00 0.00 0.00 45 1011.8
20260507233542 13 329 4.8 12.9 0.00 0.00 0.00 45 1011.7
20260507233053 13 262 6.4 12.9 0.00 0.00 0.00 44 1011.7
20260507232510 13 286 4.8 16.1 0.00 0.00 0.00 45 1011.7
20260507232021 13 284 6.4 16.1 0.00 0.00 0.00 46 1011.7
20260507231542 14 275 3.2 12.9 0.00 0.00 0.00 45 1011.8
20260507231045 14 318 3.2 14.5 0.00 0.00 0.00 46 1011.7
20260507230559 14 284 8.0 14.5 0.00 0.00 0.00 45 1011.8
20260507230501 14 291 3.2 14.5 0.00 0.00 0.00 44 1011.8
20260507230018 14 331 4.8 14.5 0.00 0.00 0.00 46 1011.7
20260507225527 14 298 4.8 20.9 0.00 0.00 0.00 47 1011.8
20260507225042 14 265 6.4 20.9 0.00 0.00 0.00 45 1011.7
20260507224552 15 281 6.4 14.5 0.00 0.00 0.00 44 1011.6
20260507224007 15 319 4.8 20.9 0.00 0.00 0.00 45 1011.6
20260507223520 15 273 12.9 20.9 0.00 0.00 0.00 42 1011.7
20260507223032 15 347 8.0 20.9 0.00 0.00 0.00 42 1011.7
20260507222541 16 322 4.8 17.7 0.00 0.00 0.00 43 1011.7
20260507222055 15 309 4.8 20.9 0.00 0.00 0.00 46 1011.5
20260507221507 15 333 8.0 17.7 0.00 0.00 0.00 43 1011.7
20260507221022 15 309 4.8 14.5 0.00 0.00 0.00 47 1011.5
20260507220534 15 309 4.8 19.3 0.00 0.00 0.00 45 1011.5
20260507220046 15 335 8.0 19.3 0.00 0.00 0.00 44 1011.4
20260507215555 15 340 4.8 17.7 0.00 0.00 0.00 45 1011.3
20260507215014 16 306 6.4 25.7 0.00 0.00 0.00 45 1011.0
20260507214528 16 291 11.3 30.6 0.00 0.00 0.00 41 1011.0
20260507214039 16 327 9.7 30.6 0.00 0.00 0.00 40 1011.0
20260507213549 16 307 4.8 16.1 0.00 0.00 0.00 42 1010.9
20260507213006 16 323 8.0 19.3 0.00 0.00 0.00 41 1010.8
20260507212516 17 309 6.4 22.5 0.00 0.00 0.00 41 1010.6
20260507212035 17 261 8.0 22.5 0.00 0.00 0.00 39 1010.5
20260507211550 17 275 8.0 19.3 0.00 0.00 0.00 39 1010.5
20260507211055 17 331 8.0 16.1 0.00 0.00 0.00 40 1010.5
20260507210514 17 295 3.2 16.1 0.00 0.00 0.00 43 1010.5
20260507210023 17 318 6.4 29.0 0.00 0.00 0.00 40 1010.5
20260507205538 17 346 11.3 29.0 0.00 0.00 0.00 41 1010.5
20260507205048 17 286 8.0 20.9 0.00 0.00 0.00 38 1010.4
20260507204504 16 322 8.0 17.7 0.00 0.00 0.00 39 1010.4
20260507204013 16 329 6.4 17.7 0.00 0.00 0.00 40 1010.5
20260507203527 17 355 8.0 17.7 0.00 0.00 0.00 39 1010.5
20260507203037 16 303 9.7 19.3 0.00 0.00 0.00 39 1010.7
20260507202554 16 194 6.4 24.1 0.00 0.00 0.00 40 1010.4
20260507202006 16 198 4.8 32.2 0.00 0.00 0.00 38 1010.6
20260507201518 16 319 11.3 32.2 0.00 0.00 0.00 36 1010.6
20260507201029 16 286 11.3 22.5 0.00 0.00 0.00 39 1010.7
20260507200548 16 305 8.0 16.1 0.00 0.00 0.00 40 1010.4
20260507200056 16 303 8.0 20.9 0.00 0.00 0.00 36 1010.6
20260507195512 17 225 8.0 30.6 0.00 0.00 0.00 37 1010.6
20260507195024 17 267 14.5 30.6 0.00 0.00 0.00 37 1010.5
20260507194538 16 302 9.7 16.1 0.00 0.00 0.00 41 1010.6
20260507194045 16 235 4.8 33.8 0.00 0.00 0.00 42 1010.6
20260507193559 16 312 9.7 33.8 0.00 0.00 0.00 43 1010.8
20260507193502 16 217 9.7 20.9 0.00 0.00 0.00 40 1010.8
20260507193018 16 262 6.4 20.9 0.00 0.00 0.00 40 1010.7
20260507192527 16 263 4.8 19.3 0.00 0.00 0.00 41 1011.0
20260507192037 16 277 6.4 19.3 0.00 0.00 0.00 43 1010.7
20260507191551 16 330 9.7 19.3 0.00 0.00 0.00 41 1010.8
20260507191008 16 279 6.4 24.1 0.00 0.00 0.00 41 1010.9
20260507190522 17 307 8.0 20.9 0.00 0.00 0.00 41 1010.9
20260507190037 17 279 8.0 14.5 0.00 0.00 0.00 42 1011.0
20260507185543 17 315 6.4 17.7 0.00 0.00 0.00 40 1011.1
20260507185058 16 254 1.6 19.3 0.00 0.00 0.00 41 1011.0
20260507184509 16 282 6.4 29.0 0.00 0.00 0.00 43 1011.1
20260507184027 16 270 9.7 30.6 0.00 0.00 0.00 38 1011.1
20260507183535 16 238 16.1 30.6 0.00 0.00 0.00 37 1011.0
20260507183049 16 271 8.0 29.0 0.00 0.00 0.00 39 1010.9
20260507182559 16 317 4.8 22.5 0.00 0.00 0.00 42 1010.9
20260507182502 16 344 6.4 22.5 0.00 0.00 0.00 40 1010.9
20260507182015 16 348 12.9 25.7 0.00 0.00 0.00 42 1011.2
20260507181527 16 298 6.4 25.7 0.00 0.00 0.00 42 1011.1
20260507181041 16 271 11.3 22.5 0.00 0.00 0.00 41 1011.0
20260507180555 16 269 11.3 20.9 0.00 0.00 0.00 43 1011.1
20260507180007 16 280 8.0 17.7 0.00 0.00 0.00 42 1011.2
20260507175522 16 265 9.7 25.7 0.00 0.00 0.00 42 1011.2
20260507175033 16 269 14.5 25.7 0.00 0.00 0.00 42 1011.4
20260507174604 16 225 9.7 24.1 0.00 0.00 0.00 42 1011.4
20260507174055 16 323 6.4 22.5 0.00 0.00 0.00 44 1011.3
20260507173512 16 286 8.0 25.7 0.00 0.00 0.00 42 1011.4
20260507173024 16 248 6.4 24.1 0.00 0.00 0.00 43 1011.4
20260507172531 16 211 6.4 20.9 0.00 0.00 0.00 44 1011.5
20260507172045 16 240 6.4 20.9 0.00 0.00 0.00 44 1011.5
20260507171609 16 294 8.0 19.3 0.00 0.00 0.00 42 1011.5
20260507171501 16 284 8.0 19.3 0.00 0.00 0.00 44 1011.5
20260507171011 16 343 8.0 17.7 0.00 0.00 0.00 45 1011.6
20260507170525 16 295 6.4 19.3 0.00 0.00 0.00 44 1011.5
20260507170035 16 242 9.7 17.7 0.00 0.00 0.00 44 1011.6
20260507165550 16 323 8.0 17.7 0.00 0.00 0.00 41 1011.6
20260507165059 16 281 6.4 17.7 0.00 0.00 0.00 45 1011.8
20260507165002 16 301 9.7 17.7 0.00 0.00 0.00 46 1011.9
20260507164516 16 319 6.4 22.5 0.00 0.00 0.00 42 1011.8
20260507164025 16 317 11.3 22.5 0.00 0.00 0.00 42 1011.8
20260507163540 16 314 3.2 22.5 0.00 0.00 0.00 44 1011.8
20260507163051 15 303 8.0 29.0 0.00 0.00 0.00 45 1011.8
20260507162508 15 184 4.8 24.1 0.00 0.00 0.00 46 1011.8
20260507162018 15 220 4.8 24.1 0.00 0.00 0.00 45 1011.9
20260507161535 15 256 9.7 24.1 0.00 0.00 0.00 46 1012.0
20260507161041 15 285 4.8 12.9 0.00 0.00 0.00 43 1011.8
20260507160555 15 315 6.4 12.9 0.00 0.00 0.00 46 1011.9
20260507160013 15 306 4.8 17.7 0.00 0.00 0.00 47 1011.9
20260507155525 15 325 6.4 17.7 0.00 0.00 0.00 45 1011.9
20260507155035 15 321 6.4 14.5 0.00 0.00 0.00 47 1011.9
20260507154549 15 279 6.4 12.9 0.00 0.00 0.00 44 1011.9
20260507154059 15 285 3.2 11.3 0.00 0.00 0.00 47 1011.8
20260507154001 15 280 4.8 11.3 0.00 0.00 0.00 47 1011.9
20260507153515 15 302 6.4 16.1 0.00 0.00 0.00 45 1012.0
20260507153027 15 281 3.2 17.7 0.00 0.00 0.00 42 1011.9
20260507152541 15 267 8.0 17.7 0.00 0.00 0.00 48 1012.0
20260507152052 14 240 6.4 20.9 0.00 0.00 0.00 48 1011.9
20260507151508 14 221 8.0 20.9 0.00 0.00 0.00 46 1012.0
20260507151019 14 5 6.4 20.9 0.00 0.00 0.00 49 1012.0
20260507150533 14 246 4.8 20.9 0.00 0.00 0.00 47 1012.0
20260507150046 14 281 8.0 29.0 0.00 0.00 0.00 47 1012.0
20260507145555 14 287 8.0 29.0 0.00 0.00 0.00 47 1012.2
20260507145016 14 278 6.4 19.3 0.00 0.00 0.00 44 1012.2
20260507144521 14 292 6.4 17.7 0.00 0.00 0.00 47 1012.3
20260507144036 14 234 3.2 11.3 0.00 0.00 0.00 53 1012.4
20260507143545 13 323 3.2 16.1 0.00 0.00 0.00 53 1012.4
20260507143118 13 314 1.6 16.1 0.00 0.00 0.00 55 1012.3
20260507143002 13 305 3.2 16.1 0.00 0.00 0.00 56 1012.4
20260507142511 13 297 3.2 11.3 0.00 0.00 0.00 56 1012.4
20260507142029 13 194 3.2 11.3 0.00 0.00 0.00 58 1012.4
20260507141537 13 294 4.8 16.1 0.00 0.00 0.00 57 1012.4
20260507141049 12 284 6.4 17.7 0.00 0.00 0.00 56 1012.6
20260507140600 12 336 8.0 17.7 0.00 0.00 0.00 56 1012.6
20260507140500 12 261 8.0 14.5 0.00 0.00 0.00 60 1012.7
20260507140031 12 294 4.8 14.5 0.00 0.00 0.00 58 1012.6
20260507135525 12 260 4.8 12.9 0.00 0.00 0.00 63 1012.7
20260507135039 12 231 4.8 9.7 0.00 0.00 0.00 66 1012.9
20260507134549 11 283 1.6 8.0 0.00 0.00 0.00 70 1012.8
20260507134005 11 182 3.2 8.0 0.00 0.00 0.00 70 1012.9
20260507133516 10 270 0.0 8.0 0.00 0.00 0.00 73 1012.9
20260507133033 10 236 1.6 11.3 0.00 0.00 0.00 74 1012.9
20260507132537 9 270 0.0 9.7 0.00 0.00 0.00 77 1012.9
20260507132047 8 247 1.6 9.7 0.00 0.00 0.00 79 1013.0
20260507131621 8 265 3.2 9.7 0.00 0.00 0.00 82 1013.1
20260507131505 7 247 3.2 9.7 0.00 0.00 0.00 84 1013.1
20260507131017 7 218 1.6 6.4 0.00 0.00 0.00 85 1013.1
20260507130514 7 226 0.0 6.4 0.00 0.00 0.00 86 1013.0
20260507130024 6 272 0.0 6.4 0.00 0.05 0.00 87 1013.0
20260507125539 6 238 1.6 6.4 0.00 0.05 0.00 87 1012.9
20260507125028 6 275 1.6 4.8 0.00 0.05 0.00 88 1012.9
20260507124552 6 255 1.6 8.0 0.00 0.05 0.00 87 1012.9
20260507124053 6 259 1.6 8.0 0.00 0.05 0.00 89 1012.9
20260507123607 6 240 1.6 8.0 0.00 0.05 0.00 89 1013.1
20260507123101 5 265 0.0 8.0 0.00 0.05 0.00 90 1013.1
20260507122517 5 258 3.2 6.4 0.00 0.05 0.00 90 1013.1
20260507122019 5 268 1.6 6.4 0.00 0.05 0.00 92 1012.9
20260507121557 5 258 1.6 6.4 0.00 0.05 0.00 92 1012.9
20260507121003 5 268 1.6 6.4 0.00 0.05 0.00 93 1012.9
20260507120553 5 277 0.0 8.0 0.00 0.05 0.00 93 1013.0
20260507120019 4 248 1.6 8.0 0.00 0.08 0.00 93 1012.9
20260507115524 4 256 0.0 6.4 0.00 0.08 0.00 93 1013.0
20260507115032 4 268 0.0 6.4 0.00 0.08 0.00 93 1012.8
20260507114527 4 252 0.0 3.2 0.00 0.08 0.00 93 1012.8
20260507114046 4 288 0.0 3.2 0.00 0.08 0.00 93 1012.7
20260507113554 3 288 0.0 3.2 0.00 0.08 0.00 93 1012.7
20260507113134 3 288 0.0 1.6 0.00 0.08 0.00 93 1012.7
20260507112555 3 288 0.0 3.2 0.00 0.08 0.00 92 1012.6
20260507112008 3 288 0.0 3.2 0.00 0.08 0.00 92 1012.6